TimeEDT,TemperatureF,Dew PointF,Humidity,Sea Level PressureIn,VisibilityMPH,Wind Direction,Wind SpeedMPH,Gust SpeedMPH,PrecipitationIn,Events,Conditions,WindDirDegrees,DateUTC
12:15 AM,51.3,50.0,95,30.02,10.0,Calm,Calm,-,N/A,,Clear,0,2013-09-14 04:15:00
12:35 AM,50.5,49.3,95,30.02,10.0,Calm,Calm,-,N/A,,Clear,0,2013-09-14 04:35:00
12:55 AM,50.5,49.5,96,30.02,10.0,Calm,Calm,-,N/A,,Clear,0,2013-09-14 04:55:00
1:15 AM,50.0,48.9,96,30.02,7.0,Calm,Calm,-,N/A,,Clear,0,2013-09-14 05:15:00
1:35 AM,49.3,48.6,97,30.02,7.0,Calm,Calm,-,N/A,,Scattered Clouds,0,2013-09-14 05:35:00
1:55 AM,49.1,48.4,97,30.02,7.0,Calm,Calm,-,N/A,,Scattered Clouds,0,2013-09-14 05:55:00
2:15 AM,48.6,47.8,97,30.02,7.0,Calm,Calm,-,N/A,,Clear,0,2013-09-14 06:15:00
2:35 AM,48.4,47.7,97,30.02,2.5,Calm,Calm,-,N/A,,Mostly Cloudy,0,2013-09-14 06:35:00
2:55 AM,47.8,47.1,97,30.02,10.0,Calm,Calm,-,N/A,,Mostly Cloudy,0,2013-09-14 06:55:00
3:15 AM,48.2,47.3,97,30.03,10.0,Calm,Calm,-,N/A,,Scattered Clouds,0,2013-09-14 07:15:00
3:35 AM,46.8,46.0,97,30.02,10.0,Calm,Calm,-,N/A,,Clear,0,2013-09-14 07:35:00
3:55 AM,46.8,46.0,97,30.02,7.0,Calm,Calm,-,N/A,,Clear,0,2013-09-14 07:55:00
4:15 AM,47.3,46.6,97,30.02,3.0,Calm,Calm,-,N/A,,Scattered Clouds,0,2013-09-14 08:15:00
4:35 AM,47.3,46.8,98,30.02,1.5,Calm,Calm,-,N/A,,Overcast,0,2013-09-14 08:35:00
4:55 AM,46.8,46.2,98,30.02,2.0,Calm,Calm,-,N/A,,Overcast,0,2013-09-14 08:55:00
5:15 AM,47.3,46.4,97,30.02,0.5,Calm,Calm,-,N/A,Fog,Fog,0,2013-09-14 09:15:00
5:35 AM,47.3,46.6,97,30.02,0.2,Calm,Calm,-,N/A,Fog,Fog,0,2013-09-14 09:35:00
5:55 AM,47.3,46.6,97,30.03,0.8,Calm,Calm,-,N/A,,Overcast,0,2013-09-14 09:55:00
6:15 AM,47.3,46.4,97,30.03,0.2,Calm,Calm,-,N/A,Fog,Fog,0,2013-09-14 10:15:00
6:35 AM,46.8,46.0,97,30.05,0.2,Calm,Calm,-,N/A,Fog,Fog,0,2013-09-14 10:35:00
6:55 AM,46.0,45.5,98,30.06,0.2,Calm,Calm,-,N/A,Fog,Fog,0,2013-09-14 10:55:00
7:15 AM,46.4,45.5,97,30.06,0.8,Calm,Calm,-,N/A,,Overcast,0,2013-09-14 11:15:00
7:35 AM,46.4,45.7,97,30.07,0.8,Calm,Calm,-,N/A,,Overcast,0,2013-09-14 11:35:00
7:55 AM,46.8,46.0,97,30.08,0.2,Calm,Calm,-,N/A,Fog,Fog,0,2013-09-14 11:55:00
8:15 AM,47.1,46.4,97,30.09,0.2,Calm,Calm,-,N/A,Fog,Fog,0,2013-09-14 12:15:00
8:35 AM,46.8,46.2,98,30.09,0.2,Calm,Calm,-,N/A,Fog,Fog,0,2013-09-14 12:35:00
8:55 AM,46.6,45.9,97,30.11,0.2,Calm,Calm,-,N/A,Fog,Fog,0,2013-09-14 12:55:00
9:15 AM,47.3,46.6,97,30.11,0.2,Calm,Calm,-,N/A,Fog,Fog,0,2013-09-14 13:15:00
9:35 AM,48.6,47.8,97,30.11,0.8,Calm,Calm,-,N/A,,Overcast,0,2013-09-14 13:35:00
9:55 AM,49.1,48.2,97,30.11,2.5,Calm,Calm,-,N/A,,Overcast,0,2013-09-14 13:55:00
10:15 AM,50.4,49.6,97,30.12,10.0,Calm,Calm,-,N/A,,Mostly Cloudy,0,2013-09-14 14:15:00
10:35 AM,53.1,52.2,97,30.12,10.0,Calm,Calm,-,N/A,,Scattered Clouds,0,2013-09-14 14:35:00
10:55 AM,55.0,54.3,97,30.11,10.0,Calm,Calm,-,N/A,,Clear,0,2013-09-14 14:55:00
11:15 AM,59.0,51.6,76,30.11,10.0,Calm,Calm,-,N/A,,Clear,0,2013-09-14 15:15:00
11:35 AM,62.1,50.7,66,30.11,10.0,Calm,Calm,-,N/A,,Clear,0,2013-09-14 15:35:00
11:55 AM,64.8,51.1,61,30.11,10.0,East,3.5,-,N/A,,Clear,80,2013-09-14 15:55:00
12:15 PM,66.2,50.4,57,30.11,10.0,Calm,Calm,-,N/A,,Clear,0,2013-09-14 16:15:00
12:35 PM,67.3,50.9,56,30.10,10.0,North,3.5,-,N/A,,Clear,10,2013-09-14 16:35:00
12:55 PM,69.6,50.0,50,30.09,10.0,North,3.5,-,N/A,,Clear,10,2013-09-14 16:55:00
1:15 PM,70.2,47.8,45,30.09,10.0,Calm,Calm,-,N/A,,Clear,0,2013-09-14 17:15:00
1:35 PM,70.7,49.3,47,30.09,10.0,North,3.5,-,N/A,,Clear,350,2013-09-14 17:35:00
1:55 PM,71.8,49.1,45,30.08,10.0,Calm,Calm,-,N/A,,Clear,0,2013-09-14 17:55:00
2:15 PM,72.5,48.4,42,30.08,10.0,West,3.5,-,N/A,,Clear,280,2013-09-14 18:15:00
2:35 PM,73.8,49.5,42,30.07,10.0,South,3.5,-,N/A,,Clear,180,2013-09-14 18:35:00
2:55 PM,74.1,45.3,36,30.07,10.0,Calm,Calm,-,N/A,,Clear,0,2013-09-14 18:55:00
3:15 PM,73.6,41.5,32,30.06,10.0,Calm,Calm,-,N/A,,Clear,0,2013-09-14 19:15:00
3:35 PM,74.3,45.9,36,30.06,10.0,Calm,Calm,-,N/A,,Clear,0,2013-09-14 19:35:00
3:55 PM,75.2,45.9,35,30.06,10.0,SSE,3.5,-,N/A,,Clear,160,2013-09-14 19:55:00
4:15 PM,74.7,46.2,36,30.06,10.0,Calm,Calm,-,N/A,,Clear,0,2013-09-14 20:15:00
4:35 PM,75.4,47.5,37,30.06,10.0,South,3.5,-,N/A,,Clear,180,2013-09-14 20:35:00
4:55 PM,73.9,47.1,38,30.07,10.0,Calm,Calm,-,N/A,,Scattered Clouds,0,2013-09-14 20:55:00
5:15 PM,73.8,50.9,45,30.07,10.0,Calm,Calm,-,N/A,,Scattered Clouds,0,2013-09-14 21:15:00
5:35 PM,73.9,51.6,45,30.08,10.0,WSW,4.6,-,N/A,,Scattered Clouds,240,2013-09-14 21:35:00
5:55 PM,73.8,52.5,47,30.08,10.0,WSW,4.6,-,N/A,,Clear,240,2013-09-14 21:55:00
6:15 PM,71.4,52.2,51,30.09,10.0,Calm,Calm,-,N/A,,Clear,0,2013-09-14 22:15:00
6:35 PM,70.0,52.7,54,30.09,10.0,Calm,Calm,-,N/A,,Clear,0,2013-09-14 22:35:00
6:55 PM,69.3,53.2,57,30.09,10.0,Calm,Calm,-,N/A,,Clear,0,2013-09-14 22:55:00
7:15 PM,65.5,55.8,71,30.10,10.0,Calm,Calm,-,N/A,,Clear,0,2013-09-14 23:15:00
7:35 PM,63.1,55.6,76,30.10,10.0,Calm,Calm,-,N/A,,Clear,0,2013-09-14 23:35:00
7:55 PM,60.3,55.6,85,30.11,10.0,Calm,Calm,-,N/A,,Clear,0,2013-09-14 23:55:00
8:15 PM,58.8,55.0,87,30.12,10.0,Calm,Calm,-,N/A,,Clear,0,2013-09-15 00:15:00
8:35 PM,57.4,54.7,91,30.13,10.0,Calm,Calm,-,N/A,,Clear,0,2013-09-15 00:35:00
8:55 PM,55.8,53.2,91,30.14,10.0,Calm,Calm,-,N/A,,Clear,0,2013-09-15 00:55:00
9:15 PM,56.3,54.0,92,30.15,10.0,Calm,Calm,-,N/A,,Clear,0,2013-09-15 01:15:00
9:35 PM,54.7,53.2,95,30.15,10.0,Calm,Calm,-,N/A,,Clear,0,2013-09-15 01:35:00
9:55 PM,54.1,52.9,95,30.16,10.0,Calm,Calm,-,N/A,,Clear,0,2013-09-15 01:55:00
10:15 PM,53.6,52.7,97,30.16,7.0,Calm,Calm,-,N/A,,Clear,0,2013-09-15 02:15:00
10:35 PM,53.1,52.2,97,30.16,7.0,Calm,Calm,-,N/A,,Clear,0,2013-09-15 02:35:00
10:55 PM,51.8,51.1,97,30.16,7.0,Calm,Calm,-,N/A,,Clear,0,2013-09-15 02:55:00
11:15 PM,52.0,51.4,98,30.16,7.0,Calm,Calm,-,N/A,,Clear,0,2013-09-15 03:15:00
11:35 PM,51.3,50.7,98,30.18,7.0,Calm,Calm,-,N/A,,Clear,0,2013-09-15 03:35:00
11:55 PM,51.1,50.5,98,30.18,7.0,Calm,Calm,-,N/A,,Clear,0,2013-09-15 03:55:00